Flag for China Weather past 2 weeks in Nanning, Guangxi, China

Now
73 °F

Clear.


Feels Like: 70 °F
Forecast: 72 / 91 °F
Wind: 1 mph from North

Location: Nanning Airport

Current Time: Apr 29, 2015 at 4:31:33 AM

Latest Report: Apr 29, 2015 at 4:00 AM


Visibility: 10 mi

Pressure: 29.80 "Hg

Humidity: 94%

Dew point: 72 °F

Location of NanningLocation

Historic Weather in Nanning — Graph

°F

Nanning temperature yesterday

Maximum temperature yesterday: 90 °F (at 3:00 PM)
Minimum temperature yesterday: 72 °F (at 3:00 AM)
Average temperature yesterday: 79 °F

Past Weeks' High & Low Weather Summary

 TemperatureHumidityPressure
High100 °F (Apr 19, 3:00 PM)100% (Apr 16, 3:00 AM)30.12 "Hg (Apr 16, 3:00 AM)
Low59 °F (Apr 14, 4:00 AM)27% (Apr 14, 2:00 PM)29.56 "Hg (Apr 18, 4:00 PM)
Average75 °F72%29.91 "Hg
* Reported Apr 14 3:00 AM — Apr 29 3:00 AM, Nanning, Weather by CustomWeather, © 2015

Note: Actual official high and low records may vary slightly from our data, if they occured in-between our weather recording intervals... More about our weather records

Advertising

Nanning weather history for previous 24 hours

 ConditionsComfort  
Time TempWeatherWind HumidityBarometerVisibility
3:00 AM
Wed, Apr 29
73 °FClear.3 mph94%29.80 "Hg10 mi
2:00 AM75 °FClear.No wind89%29.83 "Hg10 mi
1:00 AM75 °FClear.3 mph89%29.86 "Hg10 mi
12:00 AM77 °FClear.3 mph89%29.86 "Hg10 mi
11:00 PM
Tue, Apr 28
77 °FPassing clouds.6 mph83%29.83 "HgN/A
10:00 PM77 °FPassing clouds.3 mph83%29.80 "HgN/A
9:00 PM79 °FPassing clouds.6 mph79%29.80 "HgN/A
8:00 PM81 °FPassing clouds.6 mph74%29.77 "HgN/A
7:00 PM84 °FPassing clouds.10 mph66%29.77 "HgN/A
6:00 PM88 °FPassing clouds.8 mph59%29.74 "HgN/A
5:00 PM88 °FPassing clouds.8 mph55%29.74 "HgN/A
4:00 PM88 °FScattered clouds.8 mph55%29.77 "HgN/A
3:00 PM90 °FScattered clouds.6 mph52%29.80 "HgN/A
2:00 PM86 °FPartly sunny.6 mph59%29.83 "HgN/A
1:00 PM86 °FPartly sunny.6 mph55%29.86 "HgN/A
12:00 PM86 °FPartly sunny.3 mph55%29.86 "HgN/A
11:00 AM84 °FScattered clouds.1 mph66%29.89 "HgN/A
10:00 AM79 °FScattered clouds.3 mph79%29.92 "Hg4 mi
9:00 AM77 °FScattered clouds.3 mph83%29.89 "Hg4 mi
8:00 AM73 °FFog.1 mph94%29.86 "Hg2 mi
7:00 AM73 °FFog.3 mph89%29.86 "Hg2 mi
6:00 AM72 °FFog.No wind94%29.83 "Hg3 mi
5:00 AM72 °FFog.3 mph94%29.83 "Hg3 mi
4:00 AM72 °FFog.1 mph94%29.83 "Hg3 mi
Weather by CustomWeather, © 2015

See weather overviewHow to use our weather pages